Location: City of Almena
(39.8913°N, 99.7097°W)
Time: 04:42:46
(UTC+00:00)

Daily predictions for brighter satellites

Satellite Brightness Start Highest point End
(mag) Time Altitude Azimuth Time Altitude Azimuth Time Altitude Azimuth
Cosmos 2219 4.4 00:06:19 10° N 00:10:42 22° NE 00:15:04 10° ESE
Cosmos 1908 3.8 00:07:25 10° SSW 00:11:13 63° W 00:15:03 10° N
Cosmos 1825 Rocket 3.8 00:10:45 10° N 00:15:06 50° E 00:19:22 10° SSE
Aureole 3 4.2 00:13:13 10° SE 00:15:42 19° E 00:17:59 10° NE
YAOGAN 1 4.1 00:13:44 10° ESE 00:16:21 16° ENE 00:18:57 10° NNE
SL-4 R/B 4.0 00:18:30 10° NW 00:20:29 14° N 00:22:31 10° NNE
Cosmos 1892 4.5 00:21:21 10° NE 00:23:21 13° ENE 00:25:19 10° ESE
CZ-2C R/B 4.2 00:21:09 10° ESE 00:25:49 26° ENE 00:30:26 10° NNE
Delta 2 Rocket 4.5 00:20:50 10° W 00:25:53 55° S 00:31:22 10° ESE
Cosmos 1110 Rocket 4.1 00:21:24 10° SSW 00:26:40 84° WNW 00:31:56 10° NNE
Cosmos 1726 Rocket 3.6 00:23:38 10° S 00:27:52 59° E 00:32:11 10° NNE
Timation 2 Rocket 4.4 00:21:49 10° NNW 00:28:10 47° ENE 00:34:41 10° SE
Atlas Centaur 2 4.3 00:21:27 10° SW 00:28:20 29° SSE 00:35:13 10° ESE
CZ-4B R/B 4.0 00:23:14 10° S 00:28:46 58° WSW 00:34:15 10° NNW
CZ-2D R/B 4.1 00:25:37 10° SE 00:28:56 29° ENE 00:32:14 10° N
Cosmos 1302 Rocket 4.3 00:24:22 10° S 00:29:21 45° ESE 00:34:22 10° NNE
Cosmos 1703 4.5 00:27:24 10° NNW 00:31:12 47° W 00:34:59 10° SSW
Cosmos 1300 2.6 00:28:25 10° S 00:32:11 67° E 00:35:59 10° NNE
Cosmos 1758 Rocket 3.8 00:28:37 10° N 00:33:02 75° W 00:37:21 10° S
Okean-O 3.3 00:33:23 10° SE 00:37:20 33° ENE 00:41:20 10° N
Cosmos 2228 3.4 00:37:21 10° SSW 00:41:33 68° W 00:45:49 10° N
Cosmos 1606 Rocket 3.8 00:38:28 10° SSW 00:42:47 71° W 00:47:11 10° N
CZ-4B R/B 3.1 00:42:08 10° N 00:45:06 34° WNW 00:47:59 10° SW
Cosmos 1656 3.9 00:40:20 10° S 00:45:35 47° ESE 00:50:57 10° NE
FALCON 9 DEB 3.4 00:42:44 10° WSW 00:45:56 59° NW 00:48:23 16° NE
Cosmos 2227 Rocket 3.0 00:42:21 10° N 00:47:20 31° ENE 00:51:12 15° ESE
MOS 1 Rocket 4.2 00:44:32 10° NE 00:48:33 27° E 00:52:45 10° SSE
Cosmos 1553 Rocket 4.1 00:44:58 10° SSE 00:51:07 53° E 00:57:12 10° NNE
SKYMED 2 3.5 00:46:56 10° NNE 00:51:19 89° W 00:55:38 10° SSW
Meteor 2-8 Rocket 4.4 00:45:35 10° S 00:51:34 64° E 00:57:37 10° NNE
FALCON 9 DEB 3.7 00:49:00 10° WSW 00:52:06 47° NW 00:54:17 17° NE
Cosmos 44 3.6 00:47:49 10° SW 00:52:13 63° NW 00:56:54 10° NNE
CSL-04 Rocket 4.4 00:48:53 10° SE 00:53:40 31° ENE 00:58:28 10° N
CZ-4 R/B 4.3 00:52:23 10° SSE 00:56:30 70° ENE 01:00:40 10° N
OAO 3 Rocket 4.1 00:53:22 10° W 00:57:52 41° S 01:01:04 17° SE
GEOS 3 Rocket 4.4 00:57:17 21° E 01:00:01 34° NE 01:04:50 10° NNW
Lacrosse 5 4.2 00:58:27 10° NNW 01:00:09 12° N 01:01:53 10° NNE
FALCON 9 DEB 4.0 00:58:47 10° WSW 01:01:53 41° NW 01:03:42 20° NNE
Cosmos 1697 Rocket 3.3 00:57:56 10° SSE 01:02:54 34° ESE 01:05:59 20° NE
Cosmos 1340 2.6 00:59:40 10° N 01:03:23 57° ENE 01:07:06 10° SSE
Helios 1A Rocket 2.8 01:00:02 10° SSE 01:04:09 76° ENE 01:08:16 10° N
Cosmos 1939 Rocket 3.2 01:01:30 10° S 01:05:29 68° W 01:09:25 10° NNW
H-2A R/B 2.5 01:04:13 10° SE 01:09:12 41° ENE 01:14:17 10° N
Cosmos 1992 Rocket 4.3 01:05:44 10° S 01:10:35 42° ESE 01:13:53 19° NE
IRS-P2 Rocket 4.5 01:06:01 10° SSE 01:11:13 82° ENE 01:16:30 10° NNW
Cosmos 2058 Rocket 3.4 01:07:52 10° SSW 01:12:18 71° W 01:16:49 10° N
Cosmos 220 Rocket 4.3 01:10:01 10° S 01:14:07 44° ESE 01:15:19 35° ENE
Cosmos 1953 Rocket 4.5 01:10:45 10° NNW 01:15:02 51° W 01:19:19 10° SSW
Aureole 3 Rocket 3.3 01:12:44 10° SSW 01:16:16 63° W 01:21:01 10° N
SL-08 R/B 4.3 01:13:37 10° N 01:19:48 78° E 01:25:54 10° S
Cosmos 1745 Rocket 4.0 01:14:10 10° N 01:20:21 57° E 01:26:34 10° SSE
Cosmos 1455 3.5 01:18:07 10° SSE 01:19:52 25° SSE 01:19:52 25° SSE
Cosmos 1980 Rocket 3.6 01:20:11 10° SSE 01:22:19 19° SE 01:22:19 19° SE
CZ-4 R/B 1.4 01:22:03 10° S 01:25:57 74° WSW 01:29:50 10° NNW
Meteor 2-15 4.3 01:20:03 10° S 01:26:11 79° E 01:32:20 10° N
Geosat 4.0 01:21:49 10° NNE 01:26:52 84° WNW 01:31:53 10° SSW
Cosmos 2058 3.0 01:23:19 10° N 01:26:52 51° NE 01:26:52 51° NE
Cosmos 2297 Rocket 2.1 01:22:03 10° NNW 01:27:45 78° ENE 01:32:04 18° SSE
In-Cosmos 22 Rocket 4.2 01:25:29 10° NNW 01:30:51 78° W 01:36:19 10° S
CSL-04 Debris 4.0 01:26:25 10° SSE 01:31:47 70° ENE 01:37:14 10° N
Milstar 3 3.8 01:25:55 10° WSW 01:31:52 33° S 01:34:44 24° SE
Cosmos 1400 Rocket 4.3 01:28:54 10° SW 01:32:45 38° WNW 01:36:36 10° N
Cosmos 2360 4.3 01:29:20 10° S 01:34:49 49° ESE 01:35:33 46° E
Cosmos 1386 Rocket 4.4 01:31:13 10° N 01:37:37 73° E 01:43:56 10° SSE
OAO 2 Rocket 3.8 01:42:07 10° WSW 01:46:47 42° S 01:46:47 42° S
Cosmos 1709 Rocket 4.0 01:44:08 10° N 01:50:23 55° E 01:50:36 55° E
SeaSat 1 2.7 01:51:12 51° NNE 01:51:12 51° NNE 01:55:18 10° NNW
YAOGAN 1 3.6 01:47:54 10° S 01:52:03 46° W 01:56:13 10° NNW
Cosmos 2219 3.7 01:49:36 10° NNW 01:55:16 59° WSW 01:59:59 15° S
Cosmos 1892 4.1 01:55:35 10° NNW 01:59:12 38° W 02:01:24 20° SSW
SL-4 R/B 4.4 01:58:49 10° NNW 01:59:35 13° NNW 01:59:35 13° NNW
Cosmos 1315 Rocket 4.1 01:57:51 10° SSW 02:00:17 33° SW 02:00:17 33° SW
Cosmos 883 Rocket 4.3 01:56:55 10° S 02:03:06 85° E 02:09:16 10° N
Cosmos 1346 Rocket 4.1 02:01:15 10° NNW 02:03:57 37° NW 02:03:57 37° NW
Cosmos 2082 3.8 01:59:33 10° NNW 02:04:35 63° NNE 02:04:35 63° NNE
CZ-2C R/B 4.3 01:59:48 10° S 02:05:21 46° W 02:10:52 10° NNW
Cosmos 968 Rocket 3.9 02:02:03 10° NNW 02:07:11 61° WSW 02:08:22 48° SSW
Cosmos 2369 3.8 02:07:50 10° SSW 02:13:33 72° WNW 02:14:27 60° N
Atlas Centaur 2 3.6 02:09:33 10° WSW 02:17:25 42° S 02:17:56 41° SSE
ARGOS 3.4 02:18:06 63° SW 02:18:33 65° W 02:23:58 10° NNW
BREEZE-M TANK 4.2 02:20:12 10° WNW 02:23:05 32° NW 02:23:05 32° NW
USA 215 4.0 02:29:52 40° N 02:29:52 40° N 02:34:57 10° NW
Cosmos 2227 Rocket 3.4 02:26:14 10° NW 02:31:25 37° WSW 02:33:07 30° SW
Cosmos 2263 Rocket 4.4 02:35:21 10° N 02:36:26 15° N 02:36:26 15° N
ATLAS 2AS CENTAUR R/B 4.0 02:37:08 10° NNW 02:41:40 31° N 02:41:40 31° N
Cosmos 1697 Rocket 4.2 02:41:46 10° WSW 02:46:48 33° WNW 02:47:49 31° NW
H-2A R/B 4.1 02:44:20 10° SSW 02:48:42 25° W 02:53:10 10° NW
Cosmos 2344 4.3 09:27:00 47° NE 09:27:00 47° NE 09:32:18 10° NE
ADEOS Rocket 4.2 09:55:29 10° SE 10:00:22 34° ENE 10:05:19 10° N
ISS -0.3 10:19:03 11° ENE 10:19:03 11° ENE 10:19:17 10° ENE
DELTA 2 R/B (1) 4.1 10:24:50 52° SE 10:24:50 52° SE 10:29:07 10° ESE
NOSS 3-2 (C) 3.6 10:31:39 56° N 10:31:39 56° N 10:36:56 10° NNE
Lacrosse 4 Rocket 3.4 10:33:26 22° NNE 10:33:26 22° NNE 10:34:57 10° NNE
ALOS 4.3 10:30:20 10° NE 10:34:20 27° E 10:38:17 10° SSE
Cosmos 1626 4.4 10:37:59 10° SE 10:41:01 24° E 10:44:04 10° NE
CENTAUR R/B 2.6 10:44:29 57° NW 10:44:29 57° NW 10:51:04 10° NNE
BREEZE-M DEB (TANK) 4.2 10:43:12 51° NNW 10:44:36 72° NNE 11:00:24 10° ESE
CZ-2C R/B 2.5 10:40:23 10° NNE 10:44:45 68° NNE 10:44:45 68° NNE
PAYLOAD A 4.1 10:48:17 10° N 10:52:49 62° NW 10:52:49 62° NW
ADEOS 4.4 10:48:29 10° NNE 10:53:34 50° E 10:58:37 10° S
Cosmos 1833 Rocket 2.8 10:50:45 26° S 10:54:02 72° ESE 10:59:41 10° NNE
In-Cosmos 22 4.4 10:56:01 48° NNW 10:56:01 48° NNW 11:00:16 10° N
Cosmos 1269 Rocket 4.0 10:57:38 59° NW 10:57:38 59° NW 11:02:31 10° NNE
Lacrosse 5 rocket 1.9 10:58:35 46° NE 10:58:35 46° NE 11:01:18 10° NE
Cosmos 1302 Rocket 4.1 10:53:37 17° NNW 10:57:50 76° ENE 11:03:06 10° SSE
CZ-3 R/B 3.9 10:42:22 26° WSW 10:57:52 50° S 11:06:24 10° ESE
Nadezhda 4 Rocket 4.1 10:53:00 10° S 10:59:03 71° E 11:05:09 10° NNE
Cosmos 2180 Rocket 4.3 10:54:06 10° N 11:00:22 81° W 11:06:32 10° S
H-2A R/B 4.1 10:56:50 10° S 10:57:55 17° S 10:57:55 17° S
Geosat 4.4 10:56:52 10° SE 11:01:49 64° ENE 11:06:38 11° NNW
Meteor 1-31 Rocket 4.3 11:00:58 10° NNE 11:04:39 37° E 11:08:18 10° SSE
CZ-4B R/B 2.2 11:08:31 10° SSE 11:11:54 52° ENE 11:15:16 10° N
SJ-6F 4.3 11:08:51 10° N 11:12:57 85° WNW 11:15:42 20° SSW
Cosmos 2082 Rocket 2.8 11:07:45 10° S 11:13:13 57° ESE 11:18:43 10° NNE
Meteor 1-16 Rocket 4.1 11:10:13 10° NNW 11:15:22 54° W 11:20:33 10° S
CZ-4B R/B 4.5 11:14:34 10° NNE 11:18:44 58° E 11:22:40 10° S
Cosmos 1656 3.7 11:17:43 18° NNW 11:21:53 61° WSW 11:27:27 10° S
deb Chang Zheng 4 3.6 11:17:57 10° NNE 11:22:13 78° ESE 11:26:28 10° S
Intercosmos 24 4.1 11:18:42 10° N 11:22:28 61° E 11:25:59 10° SSE
Meteor 2-5 Rocket 3.7 11:20:30 10° S 11:26:09 88° ESE 11:31:59 10° N
ATLAS 3B R/B 2.5 11:24:00 10° SSW 11:30:35 86° WNW 11:37:15 10° NNE
Cosmos 1892 Rocket 4.3 11:26:31 10° S 11:30:43 54° E 11:35:00 10° NNE
Cosmos 1400 Rocket 4.2 11:28:24 10° N 11:32:09 40° ENE 11:35:49 10° SSE
COSMOS 2406 3.5 11:30:19 28° WSW 11:32:45 43° WNW 11:38:08 10° N
ERS-2 2.3 11:34:53 10° S 11:38:22 45° W 11:40:23 22° NW
Cosmos 1992 Rocket 4.3 11:33:11 10° NNW 11:38:24 69° ENE 11:43:35 10° SSE
Cosmos 1697 Rocket 2.6 11:35:13 10° NNW 11:40:53 80° WSW 11:46:32 10° SSE
ARGOS Delta rocket 4.2 11:36:46 10° NNE 11:42:12 85° ESE 11:47:42 10° S
Cosmos 1908 4.1 11:43:54 28° WSW 11:43:54 28° WSW 11:46:44 10° SSW
SAR-Lupe-4 3.4 11:39:52 10° SSE 11:43:26 86° WSW 11:47:02 10° NNW
Abrixas rocket 3.9 11:42:40 17° NNW 11:43:40 20° NNE 11:45:55 10° ENE
SKYMED 2 4.0 11:40:51 10° SSE 11:45:07 64° ENE 11:49:26 10° N
SL-19 R/B 3.3 11:42:52 10° N 11:45:40 68° WNW 11:48:32 10° SSW
ADEOS Rocket 3.5 11:41:17 10° SSW 11:45:58 28° W 11:50:41 10° NW
Cosmos 44 Rocket 3.7 11:43:10 19° NW 11:46:30 44° WSW 11:51:24 10° S
SJ-12 3.9 11:43:37 10° NNE 11:47:45 84° ESE 11:51:50 10° S
TELKOM 3 4.2 11:48:07 32° WNW 11:49:13 46° NNW 11:52:55 10° NE
Cosmos 1689 Rocket 2.5 11:46:29 10° SSE 11:49:22 61° ENE 11:52:16 10° N
Cosmos 1461 3.3 11:46:38 17° SW 11:49:52 50° NW 11:54:27 10° NNE
SL-14 R/B 3.5 11:48:50 10° SSW 11:52:38 46° W 11:56:30 10° N
ISS -2.7 11:52:01 25° WNW 11:53:01 30° NNW 11:56:02 10° NE
FENGYUN 3A 3.8 11:48:34 10° N 11:53:48 49° WNW 11:58:59 10° SW
USA 290 2.2 11:52:01 10° SSW 11:55:09 54° WNW 11:58:21 10° N
